,,,PA_Meas_PMT16A,,PR_Meas_QMR101_102,,RH_Meas_QMH101,,SR_Meas_QMS101,,TA_Meas_QMH101,,GenWind,,GenWind,
date,time,status,PA,status,PR,status,RH,status,SR,status,TA,status,DirAvg,status,SpdAvg,
2010-05-12, 00:00:04,VALID,1002.94,VALID,0,VALID,93.2631,VALID,0,VALID,25.0858,VALID,352,VALID,2.07344,
2010-05-12, 00:01:04,VALID,1002.93,VALID,0,VALID,91.928,VALID,0,VALID,25.0858,VALID,11,VALID,1.70313,
2010-05-12, 00:02:04,VALID,1002.92,VALID,0,VALID,91.9128,VALID,0,VALID,25.045,VALID,350,VALID,1.80898,
2010-05-12, 00:03:04,VALID,1002.94,VALID,0,VALID,92.5231,VALID,0,VALID,25.0488,VALID,7,VALID,1.95039,
2010-05-12, 00:04:04,VALID,1002.9,VALID,0,VALID,92.9426,VALID,0,VALID,24.9885,VALID,2,VALID,2.34414,
2010-05-12, 00:05:04,VALID,1002.92,VALID,0,VALID,93.1257,VALID,0,VALID,24.969,VALID,21,VALID,2.76563,
2010-05-12, 00:06:04,VALID,1002.86,VALID,0,VALID,92.874,VALID,0,VALID,24.93,VALID,347,VALID,2.12734,
2010-05-12, 00:07:04,VALID,1002.91,VALID,0,VALID,93.0647,VALID,0,VALID,24.9495,VALID,2,VALID,2.19727,
2010-05-12, 00:08:04,VALID,1002.84,VALID,0,VALID,93.3088,VALID,0,VALID,24.8911,VALID,19,VALID,2.21953,
2010-05-12, 00:09:04,VALID,1002.86,VALID,0,VALID,93.82,VALID,0,VALID,24.9125,VALID,18,VALID,2.08711,
2010-05-12, 00:10:04,VALID,1002.85,VALID,0,VALID,93.7513,VALID,0,VALID,24.8716,VALID,360,VALID,2.88281,
2010-05-12, 00:11:04,VALID,1002.81,VALID,0,VALID,93.8886,VALID,0,VALID,24.8522,VALID,17,VALID,2.59766,
2010-05-12, 00:12:04,VALID,1002.8,VALID,0,VALID,93.942,VALID,0,VALID,24.8327,VALID,359,VALID,2.07813,
2010-05-12, 00:13:04,VALID,1002.73,VALID,0,VALID,94.0412,VALID,0,VALID,24.8327,VALID,27,VALID,1.27969,
2010-05-12, 00:14:04,VALID,1002.77,VALID,0,VALID,94.1862,VALID,0,VALID,24.8327,VALID,9,VALID,2.85195,
2010-05-12, 00:15:04,VALID,1002.72,VALID,0,VALID,94.1556,VALID,0,VALID,24.8132,VALID,14,VALID,2.78789,
2010-05-12, 00:16:04,VALID,1002.69,VALID,0,VALID,94.2472,VALID,0,VALID,24.8132,VALID,1,VALID,1.98984,
2010-05-12, 00:17:04,VALID,1002.69,VALID,0,VALID,94.3998,VALID,0,VALID,24.7724,VALID,353,VALID,1.89453,
2010-05-12, 00:18:04,VALID,1002.68,VALID,0,VALID,94.4532,VALID,0,VALID,24.7937,VALID,17,VALID,2.44609,
2010-05-12, 00:19:04,VALID,1002.67,VALID,0,VALID,94.4608,VALID,0,VALID,24.7937,VALID,32,VALID,2.65937,
2010-05-12, 00:20:04,VALID,1002.67,VALID,0,VALID,94.3311,VALID,0,VALID,24.7937,VALID,17,VALID,2.4207,
2010-05-12, 00:21:04,VALID,1002.66,VALID,0,VALID,94.3845,VALID,0,VALID,24.8132,VALID,47,VALID,1.19492,
2010-05-12, 00:22:04,VALID,1002.62,VALID,0,VALID,94.4379,VALID,0,VALID,24.7937,VALID,7,VALID,2.55234,
2010-05-12, 00:23:04,VALID,1002.62,VALID,0,VALID,94.3158,VALID,0,VALID,24.8132,VALID,41,VALID,1.08477,
2010-05-12, 00:24:04,VALID,1002.61,VALID,0,VALID,94.3769,VALID,0,VALID,24.8132,VALID,22,VALID,1.47734,
2010-05-12, 00:25:04,VALID,1002.61,VALID,0,VALID,94.4227,VALID,0,VALID,24.8132,VALID,360,VALID,1.54609,
2010-05-12, 00:26:04,VALID,1002.57,VALID,0,VALID,94.2548,VALID,0,VALID,24.8132,VALID,19,VALID,3.35898,
2010-05-12, 00:27:04,VALID,1002.58,VALID,0,VALID,94.1785,VALID,0,VALID,24.8132,VALID,24,VALID,1.15898,
2010-05-12, 00:28:04,VALID,1002.55,VALID,0,VALID,94.3235,VALID,0,VALID,24.8132,VALID,27,VALID,1.72148,
2010-05-12, 00:29:04,VALID,1002.54,VALID,0,VALID,94.1938,VALID,0,VALID,24.8132,VALID,12,VALID,1.96523,
2010-05-12, 00:30:04,VALID,1002.52,VALID,0,VALID,94.2701,VALID,0,VALID,24.8132,VALID,16,VALID,2.16328,
2010-05-12, 00:31:04,VALID,1002.46,VALID,0.5,VALID,94.1862,VALID,0,VALID,24.8132,VALID,22,VALID,2.92266,
2010-05-12, 00:32:04,VALID,1002.45,VALID,0,VALID,94.1938,VALID,0,VALID,24.7937,VALID,6,VALID,1.58398,
2010-05-12, 00:33:04,VALID,1002.43,VALID,0,VALID,94.3082,VALID,0,VALID,24.7956,VALID,4,VALID,1.67188,
2010-05-12, 00:34:04,VALID,1002.36,VALID,0,VALID,94.354,VALID,0,VALID,24.7956,VALID,344,VALID,0.903516,
2010-05-12, 00:35:04,VALID,1002.32,VALID,0,VALID,94.354,VALID,0,VALID,24.7548,VALID,351,VALID,2.07617,
2010-05-12, 00:36:04,VALID,1002.24,VALID,0,VALID,94.1556,VALID,0,VALID,24.7548,VALID,357,VALID,2.7125,
2010-05-12, 00:37:04,VALID,1002.22,VALID,0,VALID,94.0717,VALID,0,VALID,24.7743,VALID,16,VALID,2.03945,
2010-05-12, 00:38:04,VALID,1002.14,VALID,0,VALID,93.9268,VALID,0,VALID,24.7529,VALID,24,VALID,3.80859,
2010-05-12, 00:39:04,VALID,1002.08,VALID,0,VALID,93.942,VALID,0,VALID,24.7724,VALID,30,VALID,1.9082,
2010-05-12, 00:40:04,VALID,1002.06,VALID,0,VALID,94.0107,VALID,0,VALID,24.8151,VALID,355,VALID,1.06328,
2010-05-12, 00:41:04,VALID,1002,VALID,0,VALID,94.1862,VALID,0,VALID,24.7548,VALID,16,VALID,1.09219,
2010-05-12, 00:42:04,VALID,1001.96,VALID,0,VALID,94.2472,VALID,0,VALID,24.7353,VALID,336,VALID,1.5293,
2010-05-12, 00:43:04,VALID,1001.89,VALID,0,VALID,94.3464,VALID,0,VALID,24.714,VALID,11,VALID,1.61172,
2010-05-12, 00:44:04,VALID,1001.86,VALID,0,VALID,94.4455,VALID,0,VALID,24.6945,VALID,354,VALID,1.44727,
2010-05-12, 00:45:04,VALID,1001.79,VALID,0,VALID,94.56,VALID,0,VALID,24.6964,VALID,39,VALID,1.27969,
2010-05-12, 00:46:04,VALID,1001.78,VALID,0,VALID,94.6439,VALID,0,VALID,24.6769,VALID,2,VALID,2.09609,
2010-05-12, 00:47:04,VALID,1001.75,VALID,0,VALID,94.5066,VALID,0,VALID,24.6556,VALID,21,VALID,2.03945,
2010-05-12, 00:48:04,VALID,1001.71,VALID,0,VALID,94.4074,VALID,0,VALID,24.6556,VALID,22,VALID,1.83477,
2010-05-12, 00:49:04,VALID,1001.68,VALID,0,VALID,94.4913,VALID,0,VALID,24.6769,VALID,5,VALID,1.65664,
2010-05-12, 00:50:04,VALID,1001.66,VALID,0,VALID,94.5218,VALID,0,VALID,24.6574,VALID,7,VALID,2.08242,
2010-05-12, 00:51:04,VALID,1001.66,VALID,0,VALID,94.4455,VALID,0,VALID,24.6361,VALID,357,VALID,1.61836,
2010-05-12, 00:52:04,VALID,1001.62,VALID,0,VALID,94.4684,VALID,0,VALID,24.6166,VALID,18,VALID,0.784375,
2010-05-12, 00:53:04,VALID,1001.66,VALID,0,VALID,94.4989,VALID,0,VALID,24.6593,VALID,25,VALID,1.3832,
2010-05-12, 00:54:04,VALID,1001.61,VALID,0,VALID,94.5142,VALID,0,VALID,24.638,VALID,329,VALID,1.06445,
2010-05-12, 00:55:04,VALID,1001.62,VALID,0,VALID,94.5829,VALID,0,VALID,24.6398,VALID,2,VALID,1.75703,
2010-05-12, 00:56:04,VALID,1001.6,VALID,0,VALID,94.6057,VALID,0,VALID,24.6185,VALID,16,VALID,1.15117,
2010-05-12, 00:57:04,VALID,1001.63,VALID,0,VALID,94.5905,VALID,0,VALID,24.6398,VALID,346,VALID,0.529297,
2010-05-12, 00:58:04,VALID,1001.64,VALID,0,VALID,94.6363,VALID,0,VALID,24.599,VALID,354,VALID,1.73281,
2010-05-12, 00:59:04,VALID,1001.63,VALID,0,VALID,94.4379,VALID,0,VALID,24.6204,VALID,2,VALID,2.37773,
2010-05-12, 01:00:04,VALID,1001.66,VALID,0,VALID,94.4761,VALID,0,VALID,24.638,VALID,354,VALID,1.15039,
2010-05-12, 01:01:04,VALID,1001.6,VALID,0,VALID,94.5371,VALID,0,VALID,24.6185,VALID,346,VALID,1.45078,
2010-05-12, 01:02:04,VALID,1001.6,VALID,0,VALID,94.5218,VALID,0,VALID,24.6185,VALID,15,VALID,0.604688,
2010-05-12, 01:03:04,VALID,1001.61,VALID,0,VALID,94.6439,VALID,0,VALID,24.5972,VALID,340,VALID,0.603516,
2010-05-12, 01:04:04,VALID,1001.59,VALID,0,VALID,94.6744,VALID,0,VALID,24.599,VALID,357,VALID,1.53906,
2010-05-12, 01:05:04,VALID,1001.58,VALID,0,VALID,94.7125,VALID,0,VALID,24.599,VALID,343,VALID,0.38125,
2010-05-12, 01:06:04,VALID,1001.56,VALID,0,VALID,94.8499,VALID,0,VALID,24.5796,VALID,348,VALID,0.810156,
2010-05-12, 01:07:04,VALID,1001.55,VALID,0,VALID,94.8422,VALID,0,VALID,24.5601,VALID,336,VALID,0.896484,
2010-05-12, 01:08:04,VALID,1001.5,VALID,0,VALID,94.9033,VALID,0,VALID,24.5388,VALID,349,VALID,1.65078,
2010-05-12, 01:09:04,VALID,1001.5,VALID,0,VALID,94.8956,VALID,0,VALID,24.5601,VALID,357,VALID,2.07969,
2010-05-12, 01:10:04,VALID,1001.53,VALID,0,VALID,94.8041,VALID,0,VALID,24.5601,VALID,355,VALID,1.69414,
2010-05-12, 01:11:04,VALID,1001.49,VALID,0,VALID,94.7507,VALID,0,VALID,24.5601,VALID,353,VALID,1.25898,
2010-05-12, 01:12:04,VALID,1001.5,VALID,0,VALID,94.7965,VALID,0,VALID,24.5796,VALID,10,VALID,1.21133,
2010-05-12, 01:13:04,VALID,1001.51,VALID,0,VALID,94.8804,VALID,0,VALID,24.5582,VALID,3,VALID,0.828125,
2010-05-12, 01:14:04,VALID,1001.55,VALID,0,VALID,94.9185,VALID,0,VALID,24.5193,VALID,353,VALID,0.338281,
2010-05-12, 01:15:04,VALID,1001.5,VALID,0,VALID,95.0253,VALID,0,VALID,24.4998,VALID,353,VALID,0.400391,
2010-05-12, 01:16:04,VALID,1001.51,VALID,0,VALID,95.0635,VALID,0,VALID,24.5212,VALID,349,VALID,0.91875,
2010-05-12, 01:17:04,VALID,1001.52,VALID,0,VALID,95.1093,VALID,0,VALID,24.5017,VALID,5,VALID,1.16836,
2010-05-12, 01:18:04,VALID,1001.54,VALID,0.5,VALID,95.155,VALID,0,VALID,24.5212,VALID,353,VALID,0.607031,
2010-05-12, 01:19:04,VALID,1001.54,VALID,0,VALID,95.2237,VALID,0,VALID,24.5212,VALID,352,VALID,0.548828,
2010-05-12, 01:20:04,VALID,1001.55,VALID,0,VALID,95.2695,VALID,0,VALID,24.523,VALID,351,VALID,1.02969,
2010-05-12, 01:21:04,VALID,1001.51,VALID,0,VALID,95.3152,VALID,0,VALID,24.4804,VALID,358,VALID,1.0625,
2010-05-12, 01:22:04,VALID,1001.51,VALID,0,VALID,95.361,VALID,0,VALID,24.5017,VALID,3,VALID,0.610156,
2010-05-12, 01:23:04,VALID,1001.5,VALID,0,VALID,95.3915,VALID,0,VALID,24.4628,VALID,358,VALID,0.721484,
2010-05-12, 01:24:04,VALID,1001.45,VALID,0,VALID,95.4068,VALID,0,VALID,24.4628,VALID,351,VALID,1.04375,
2010-05-12, 01:25:04,VALID,1001.46,VALID,0,VALID,95.4907,VALID,0,VALID,24.4628,VALID,342,VALID,0.758984,
2010-05-12, 01:26:04,VALID,1001.4,VALID,0,VALID,95.4983,VALID,0,VALID,24.4433,VALID,360,VALID,1.32461,
2010-05-12, 01:27:04,VALID,1001.41,VALID,0,VALID,95.5517,VALID,0,VALID,24.4628,VALID,1,VALID,0.69375,
2010-05-12, 01:28:04,VALID,1001.39,VALID,0,VALID,95.5822,VALID,0,VALID,24.4433,VALID,352,VALID,1.13516,
2010-05-12, 01:29:04,VALID,1001.41,VALID,0,VALID,95.5746,VALID,0,VALID,24.4433,VALID,11,VALID,1.85703,
2010-05-12, 01:30:04,VALID,1001.35,VALID,0,VALID,95.5212,VALID,0,VALID,24.4628,VALID,350,VALID,1.53711,
2010-05-12, 01:31:04,VALID,1001.37,VALID,0,VALID,95.3381,VALID,0,VALID,24.5017,VALID,356,VALID,1.82617,
2010-05-12, 01:32:04,VALID,1001.33,VALID,0,VALID,95.2466,VALID,0,VALID,24.4804,VALID,17,VALID,1.55,
2010-05-12, 01:33:04,VALID,1001.35,VALID,0,VALID,95.1932,VALID,0,VALID,24.5017,VALID,13,VALID,1.61953,
2010-05-12, 01:34:04,VALID,1001.36,VALID,0.5,VALID,95.0787,VALID,0,VALID,24.5212,VALID,8,VALID,0.828516,
2010-05-12, 01:35:04,VALID,1001.33,VALID,0,VALID,95.094,VALID,0,VALID,24.4998,VALID,23,VALID,1.78125,
2010-05-12, 01:36:04,VALID,1001.34,VALID,0,VALID,94.8728,VALID,0,VALID,24.5212,VALID,15,VALID,1.4918,
2010-05-12, 01:37:04,VALID,1001.33,VALID,0,VALID,94.888,VALID,0,VALID,24.5212,VALID,1,VALID,0.83125,
2010-05-12, 01:38:04,VALID,1001.32,VALID,0,VALID,94.949,VALID,0,VALID,24.5212,VALID,355,VALID,1.13984,
2010-05-12, 01:39:04,VALID,1001.32,VALID,0,VALID,94.8575,VALID,0,VALID,24.5212,VALID,13,VALID,1.69531,
2010-05-12, 01:40:04,VALID,1001.33,VALID,0,VALID,94.8346,VALID,0,VALID,24.4998,VALID,9,VALID,2.12422,
2010-05-12, 01:41:04,VALID,1001.31,VALID,0,VALID,94.7888,VALID,0,VALID,24.523,VALID,21,VALID,2.23438,
2010-05-12, 01:42:04,VALID,1001.31,VALID,0,VALID,94.8499,VALID,0,VALID,24.5017,VALID,359,VALID,0.977344,
2010-05-12, 01:43:04,VALID,1001.29,VALID,0.5,VALID,94.9719,VALID,0,VALID,24.4822,VALID,331,VALID,0.503125,
2010-05-12, 01:44:04,VALID,1001.3,VALID,0,VALID,95.1474,VALID,0,VALID,24.4414,VALID,344,VALID,1.06211,
2010-05-12, 01:45:04,VALID,1001.32,VALID,0,VALID,95.1779,VALID,0,VALID,24.4433,VALID,22,VALID,1.0418,
2010-05-12, 01:46:04,VALID,1001.3,VALID,0,VALID,95.2771,VALID,0,VALID,24.4025,VALID,12,VALID,0.592188,
2010-05-12, 01:47:04,VALID,1001.3,VALID,0,VALID,95.3152,VALID,0,VALID,24.4025,VALID,36,VALID,1.83086,
2010-05-12, 01:48:04,VALID,1001.37,VALID,0,VALID,95.2695,VALID,0,VALID,24.4025,VALID,6,VALID,1.51758,
2010-05-12, 01:49:04,VALID,1001.34,VALID,0,VALID,95.2695,VALID,0,VALID,24.4238,VALID,14,VALID,1.05625,
2010-05-12, 01:50:04,VALID,1001.39,VALID,0,VALID,95.1321,VALID,0,VALID,24.4414,VALID,14,VALID,1.73398,
2010-05-12, 01:51:04,VALID,1001.42,VALID,0,VALID,94.949,VALID,0,VALID,24.4822,VALID,26,VALID,1.5918,
2010-05-12, 01:52:04,VALID,1001.47,VALID,0,VALID,94.8499,VALID,0,VALID,24.4822,VALID,19,VALID,1.56289,
2010-05-12, 01:53:04,VALID,1001.45,VALID,0,VALID,94.7354,VALID,0,VALID,24.4609,VALID,42,VALID,1.24023,
2010-05-12, 01:54:04,VALID,1001.49,VALID,0,VALID,94.6973,VALID,0,VALID,24.5017,VALID,32,VALID,0.434375,
2010-05-12, 01:55:04,VALID,1001.51,VALID,0.5,VALID,94.6744,VALID,0,VALID,24.4609,VALID,3,VALID,1.73477,
2010-05-12, 01:56:04,VALID,1001.53,VALID,0,VALID,94.6363,VALID,0,VALID,24.4609,VALID,2,VALID,1.03555,
2010-05-12, 01:57:04,VALID,1001.53,VALID,0,VALID,94.6744,VALID,0,VALID,24.4822,VALID,2,VALID,0.595312,
2010-05-12, 01:58:04,VALID,1001.54,VALID,0,VALID,94.6668,VALID,0,VALID,24.4822,VALID,2,VALID,2.17422,
2010-05-12, 01:59:04,VALID,1001.52,VALID,0,VALID,94.6668,VALID,0,VALID,24.4609,VALID,16,VALID,0.439453,
2010-05-12, 02:00:04,VALID,1001.51,VALID,0,VALID,94.6973,VALID,0,VALID,24.4822,VALID,360,VALID,1.14766,
2010-05-12, 02:01:04,VALID,1001.53,VALID,0,VALID,94.7431,VALID,0,VALID,24.4628,VALID,360,VALID,0.614453,
2010-05-12, 02:02:04,VALID,1001.51,VALID,0,VALID,94.7736,VALID,0,VALID,24.4609,VALID,17,VALID,0.794141,
2010-05-12, 02:03:04,VALID,1001.54,VALID,0,VALID,94.8194,VALID,0,VALID,24.4609,VALID,6,VALID,1.25352,
2010-05-12, 02:04:04,VALID,1001.55,VALID,0,VALID,94.6897,VALID,0,VALID,24.4609,VALID,15,VALID,1.48594,
2010-05-12, 02:05:04,VALID,1001.55,VALID,0,VALID,94.6057,VALID,0,VALID,24.5017,VALID,23,VALID,0.993359,
2010-05-12, 02:06:04,VALID,1001.56,VALID,0,VALID,94.3769,VALID,0,VALID,24.5017,VALID,6,VALID,1.2957,
2010-05-12, 02:07:04,VALID,1001.55,VALID,0,VALID,94.2624,VALID,0,VALID,24.5406,VALID,5,VALID,1.05508,
2010-05-12, 02:08:04,VALID,1001.59,VALID,0,VALID,94.3158,VALID,0,VALID,24.5601,VALID,7,VALID,0.497656,
2010-05-12, 02:09:04,VALID,1001.59,VALID,0,VALID,94.4379,VALID,0,VALID,24.5193,VALID,5,VALID,0.471094,
2010-05-12, 02:10:04,VALID,1001.57,VALID,0,VALID,94.56,VALID,0,VALID,24.5212,VALID,5,VALID,0.376172,
2010-05-12, 02:11:04,VALID,1001.57,VALID,0,VALID,94.6286,VALID,0,VALID,24.4804,VALID,3,VALID,0.401953,
2010-05-12, 02:12:04,VALID,1001.58,VALID,0,VALID,94.6973,VALID,0,VALID,24.4804,VALID,3,VALID,0.230469,
2010-05-12, 02:13:04,VALID,1001.57,VALID,0,VALID,94.7812,VALID,0,VALID,24.4609,VALID,2,VALID,0.503125,
2010-05-12, 02:14:04,VALID,1001.59,VALID,0,VALID,94.8194,VALID,0,VALID,24.4822,VALID,344,VALID,0.0972656,
2010-05-12, 02:15:04,VALID,1001.56,VALID,0,VALID,94.9948,VALID,0.100563,VALID,24.4804,VALID,344,VALID,0,
2010-05-12, 02:16:04,VALID,1001.6,VALID,0,VALID,95.1474,VALID,0,VALID,24.4609,VALID,341,VALID,0.405859,
2010-05-12, 02:17:04,VALID,1001.6,VALID,0,VALID,95.2389,VALID,0.100563,VALID,24.4414,VALID,341,VALID,0.334766,
2010-05-12, 02:18:04,VALID,1001.61,VALID,0,VALID,95.3381,VALID,0.100563,VALID,24.4006,VALID,341,VALID,0.0433594,
2010-05-12, 02:19:04,VALID,1001.66,VALID,0,VALID,95.4602,VALID,0,VALID,24.3812,VALID,341,VALID,0.00429688,
2010-05-12, 02:20:04,VALID,1001.67,VALID,0,VALID,95.567,VALID,0.100563,VALID,24.3617,VALID,341,VALID,0.150391,
2010-05-12, 02:21:04,VALID,1001.66,VALID,0,VALID,95.6585,VALID,0.100563,VALID,24.3228,VALID,341,VALID,0.229687,
2010-05-12, 02:22:04,VALID,1001.66,VALID,0,VALID,95.7959,VALID,0.100563,VALID,24.3422,VALID,341,VALID,0.38125,
2010-05-12, 02:23:04,VALID,1001.67,VALID,0,VALID,95.9103,VALID,0,VALID,24.3636,VALID,341,VALID,0.309375,
2010-05-12, 02:24:04,VALID,1001.7,VALID,0,VALID,95.9866,VALID,0.100563,VALID,24.3228,VALID,9,VALID,0.380469,
2010-05-12, 02:25:04,VALID,1001.75,VALID,0,VALID,96.0247,VALID,0,VALID,24.3246,VALID,94,VALID,0.335156,
2010-05-12, 02:26:04,VALID,1001.77,VALID,0,VALID,96.1086,VALID,0.100563,VALID,24.3052,VALID,94,VALID,0.652734,
2010-05-12, 02:27:04,VALID,1001.78,VALID,0,VALID,96.1697,VALID,0,VALID,24.3052,VALID,95,VALID,0.714453,
2010-05-12, 02:28:04,VALID,1001.79,VALID,0,VALID,96.2078,VALID,0.100563,VALID,24.3052,VALID,95,VALID,0.591406,
2010-05-12, 02:29:04,VALID,1001.81,VALID,0,VALID,96.2994,VALID,0.100563,VALID,24.2644,VALID,95,VALID,0.356641,
2010-05-12, 02:30:04,VALID,1001.79,VALID,0,VALID,96.3299,VALID,0,VALID,24.2875,VALID,95,VALID,0.06875,
2010-05-12, 02:31:04,VALID,1001.81,VALID,0,VALID,96.3604,VALID,0,VALID,24.2681,VALID,95,VALID,0,
2010-05-12, 02:32:04,VALID,1001.8,VALID,0,VALID,96.4214,VALID,0,VALID,24.2681,VALID,95,VALID,0,
2010-05-12, 02:33:04,VALID,1001.79,VALID,0,VALID,96.4443,VALID,0,VALID,24.2681,VALID,95,VALID,0.372266,
2010-05-12, 02:34:04,VALID,1001.78,VALID,0,VALID,96.4901,VALID,0,VALID,24.2468,VALID,95,VALID,0.0105469,
2010-05-12, 02:35:04,VALID,1001.76,VALID,0,VALID,96.5282,VALID,0,VALID,24.3088,VALID,132,VALID,0.549219,
2010-05-12, 02:36:04,VALID,1001.79,VALID,0,VALID,96.5587,VALID,0,VALID,24.3088,VALID,157,VALID,0.130078,
2010-05-12, 02:37:04,VALID,1001.74,VALID,0,VALID,96.6198,VALID,0,VALID,24.2468,VALID,28,VALID,0.5375,
2010-05-12, 02:38:04,VALID,1001.73,VALID,0,VALID,96.5893,VALID,0,VALID,24.307,VALID,345,VALID,0.735156,
2010-05-12, 02:39:04,VALID,1001.73,VALID,0,VALID,96.5893,VALID,0,VALID,24.3478,VALID,8,VALID,0.366016,
2010-05-12, 02:40:04,VALID,1001.73,VALID,0.5,VALID,96.6121,VALID,0,VALID,24.3265,VALID,8,VALID,0.190625,
2010-05-12, 02:41:04,VALID,1001.7,VALID,0,VALID,96.6121,VALID,0,VALID,24.3246,VALID,6,VALID,0.208203,
2010-05-12, 02:42:04,VALID,1001.72,VALID,0,VALID,96.5587,VALID,0,VALID,24.3459,VALID,359,VALID,0.075,
2010-05-12, 02:43:04,VALID,1001.66,VALID,0,VALID,96.5664,VALID,0,VALID,24.307,VALID,230,VALID,0.469141,
2010-05-12, 02:44:04,VALID,1001.65,VALID,0,VALID,96.5282,VALID,0,VALID,24.2681,VALID,230,VALID,0.369922,
2010-05-12, 02:45:04,VALID,1001.62,VALID,0,VALID,96.5282,VALID,0,VALID,24.2699,VALID,230,VALID,0.415234,
2010-05-12, 02:46:04,VALID,1001.62,VALID,0,VALID,96.5511,VALID,0,VALID,24.2486,VALID,230,VALID,0.259375,
2010-05-12, 02:47:04,VALID,1001.62,VALID,0,VALID,96.5511,VALID,0,VALID,24.2681,VALID,230,VALID,0.171094,
2010-05-12, 02:48:04,VALID,1001.57,VALID,0,VALID,96.5816,VALID,0,VALID,24.2875,VALID,230,VALID,0.258984,
2010-05-12, 02:49:04,VALID,1001.59,VALID,0,VALID,96.6427,VALID,0,VALID,24.2875,VALID,274,VALID,0.510547,
2010-05-12, 02:50:04,VALID,1001.57,VALID,0,VALID,96.6579,VALID,0,VALID,24.2875,VALID,275,VALID,0.232031,
2010-05-12, 02:51:04,VALID,1001.56,VALID,0,VALID,96.6961,VALID,0,VALID,24.3088,VALID,283,VALID,0.301172,
2010-05-12, 02:52:04,VALID,1001.55,VALID,0,VALID,96.7113,VALID,0,VALID,24.3088,VALID,283,VALID,0.253125,
2010-05-12, 02:53:04,VALID,1001.54,VALID,0,VALID,96.7342,VALID,0,VALID,24.2875,VALID,283,VALID,0.538672,
2010-05-12, 02:54:04,VALID,1001.55,VALID,0,VALID,96.7266,VALID,0,VALID,24.2681,VALID,283,VALID,0.169141,
2010-05-12, 02:55:04,VALID,1001.51,VALID,0,VALID,96.7342,VALID,0.100563,VALID,24.2875,VALID,283,VALID,0.263281,
2010-05-12, 02:56:04,VALID,1001.52,VALID,0.5,VALID,96.7495,VALID,0,VALID,24.2875,VALID,283,VALID,0.369922,
2010-05-12, 02:57:04,VALID,1001.48,VALID,0,VALID,96.7647,VALID,0,VALID,24.2875,VALID,288,VALID,0.555469,
2010-05-12, 02:58:04,VALID,1001.51,VALID,0,VALID,96.78,VALID,0,VALID,24.2681,VALID,291,VALID,0.382813,
2010-05-12, 02:59:04,VALID,1001.48,VALID,0,VALID,96.7876,VALID,0,VALID,24.2486,VALID,309,VALID,0.594141,
2010-05-12, 03:00:04,VALID,1001.48,VALID,0,VALID,96.78,VALID,0,VALID,24.2486,VALID,281,VALID,0.380469,
2010-05-12, 03:01:04,VALID,1001.5,VALID,0,VALID,96.8029,VALID,0,VALID,24.2681,VALID,281,VALID,0.134766,
2010-05-12, 03:02:04,VALID,1001.5,VALID,0,VALID,96.7952,VALID,0,VALID,24.2662,VALID,2,VALID,0.405859,
2010-05-12, 03:03:04,VALID,1001.49,VALID,0,VALID,96.8029,VALID,0,VALID,24.2681,VALID,359,VALID,0.625,
2010-05-12, 03:04:04,VALID,1001.51,VALID,0,VALID,96.8029,VALID,0,VALID,24.2681,VALID,351,VALID,0.791406,
2010-05-12, 03:05:04,VALID,1001.52,VALID,0,VALID,96.8029,VALID,0,VALID,24.2078,VALID,351,VALID,0.580078,
2010-05-12, 03:06:04,VALID,1001.53,VALID,0,VALID,96.7952,VALID,0,VALID,24.1884,VALID,350,VALID,0.508594,
2010-05-12, 03:07:04,VALID,1001.58,VALID,0,VALID,96.7876,VALID,0,VALID,24.2291,VALID,346,VALID,0.519922,
2010-05-12, 03:08:04,VALID,1001.6,VALID,0,VALID,96.7952,VALID,0,VALID,24.2097,VALID,345,VALID,0.339063,
2010-05-12, 03:09:04,VALID,1001.61,VALID,0,VALID,96.8105,VALID,0,VALID,24.2078,VALID,345,VALID,0.167578,
2010-05-12, 03:10:04,VALID,1001.6,VALID,0,VALID,96.8029,VALID,0,VALID,24.1884,VALID,345,VALID,0.141797,
2010-05-12, 03:11:04,VALID,1001.63,VALID,0,VALID,96.841,VALID,0,VALID,24.2097,VALID,345,VALID,0.370703,
2010-05-12, 03:12:04,VALID,1001.67,VALID,0,VALID,96.8486,VALID,0,VALID,24.1884,VALID,345,VALID,0.300781,
2010-05-12, 03:13:04,VALID,1001.67,VALID,0,VALID,96.8486,VALID,0,VALID,24.2097,VALID,345,VALID,0.352734,
2010-05-12, 03:14:04,VALID,1001.69,VALID,0,VALID,96.841,VALID,0,VALID,24.1902,VALID,345,VALID,0.264062,
2010-05-12, 03:15:04,VALID,1001.69,VALID,0,VALID,96.8639,VALID,0,VALID,24.1884,VALID,345,VALID,0.421094,
2010-05-12, 03:16:04,VALID,1001.69,VALID,0,VALID,96.8792,VALID,0,VALID,24.2097,VALID,345,VALID,0.373437,
2010-05-12, 03:17:04,VALID,1001.72,VALID,0,VALID,96.8792,VALID,0,VALID,24.1689,VALID,345,VALID,0.473828,
2010-05-12, 03:18:04,VALID,1001.71,VALID,0,VALID,96.8868,VALID,0,VALID,24.1689,VALID,345,VALID,0.288281,
2010-05-12, 03:19:04,VALID,1001.71,VALID,0,VALID,96.9097,VALID,0,VALID,24.2097,VALID,345,VALID,0.147656,
2010-05-12, 03:20:04,VALID,1001.72,VALID,0,VALID,96.9097,VALID,0,VALID,24.1884,VALID,345,VALID,0.0105469,
2010-05-12, 03:21:04,VALID,1001.69,VALID,0,VALID,96.9173,VALID,0,VALID,24.2078,VALID,345,VALID,0,
2010-05-12, 03:22:04,VALID,1001.67,VALID,0,VALID,96.9326,VALID,0,VALID,24.2291,VALID,345,VALID,0,
2010-05-12, 03:23:04,VALID,1001.67,VALID,0,VALID,96.9478,VALID,0,VALID,24.2291,VALID,345,VALID,0.142578,
2010-05-12, 03:24:04,VALID,1001.68,VALID,0,VALID,96.9402,VALID,0,VALID,24.2078,VALID,345,VALID,0,
2010-05-12, 03:25:04,VALID,1001.65,VALID,0,VALID,96.9402,VALID,0,VALID,24.2291,VALID,345,VALID,0.00195313,
2010-05-12, 03:26:04,VALID,1001.66,VALID,0,VALID,96.9707,VALID,0,VALID,24.2078,VALID,345,VALID,0.178516,
2010-05-12, 03:27:04,VALID,1001.67,VALID,0,VALID,96.9478,VALID,0,VALID,24.2097,VALID,345,VALID,0.252734,
2010-05-12, 03:28:04,VALID,1001.64,VALID,0,VALID,96.9554,VALID,0,VALID,24.2097,VALID,345,VALID,0,
2010-05-12, 03:29:04,VALID,1001.65,VALID,0,VALID,96.9554,VALID,0,VALID,24.2291,VALID,345,VALID,0,
2010-05-12, 03:30:04,VALID,1001.62,VALID,0,VALID,96.9783,VALID,0,VALID,24.2486,VALID,345,VALID,0,
2010-05-12, 03:31:04,VALID,1001.64,VALID,0,VALID,96.9707,VALID,0,VALID,24.2291,VALID,345,VALID,0.106641,
2010-05-12, 03:32:04,VALID,1001.64,VALID,0,VALID,96.9783,VALID,0,VALID,24.2681,VALID,345,VALID,0.130078,
2010-05-12, 03:33:04,VALID,1001.61,VALID,0,VALID,96.9707,VALID,0,VALID,24.2681,VALID,345,VALID,0.25,
2010-05-12, 03:34:04,VALID,1001.6,VALID,0,VALID,96.9783,VALID,0,VALID,24.2875,VALID,267,VALID,0.455469,
2010-05-12, 03:35:04,VALID,1001.58,VALID,0,VALID,96.986,VALID,0,VALID,24.2875,VALID,267,VALID,0.329688,
2010-05-12, 03:36:04,VALID,1001.54,VALID,0,VALID,97.0012,VALID,0,VALID,24.2662,VALID,267,VALID,0.01875,
2010-05-12, 03:37:04,VALID,1001.53,VALID,0,VALID,97.0012,VALID,0,VALID,24.2875,VALID,267,VALID,0,
2010-05-12, 03:38:04,VALID,1001.53,VALID,0,VALID,97.0012,VALID,0,VALID,24.2681,VALID,267,VALID,0,
2010-05-12, 03:39:04,VALID,1001.51,VALID,0,VALID,97.0012,VALID,0,VALID,24.2875,VALID,267,VALID,0.441797,
2010-05-12, 03:40:04,VALID,1001.47,VALID,0,VALID,96.986,VALID,0,VALID,24.2875,VALID,243,VALID,0.678516,
2010-05-12, 03:41:04,VALID,1001.48,VALID,0,VALID,97.0241,VALID,0,VALID,24.2681,VALID,241,VALID,0.393359,
2010-05-12, 03:42:04,VALID,1001.51,VALID,0,VALID,97.0394,VALID,0,VALID,24.2681,VALID,241,VALID,0.133594,
2010-05-12, 03:43:04,VALID,1001.49,VALID,0,VALID,97.0241,VALID,0,VALID,24.2681,VALID,241,VALID,0,
2010-05-12, 03:44:04,VALID,1001.47,VALID,0,VALID,97.0394,VALID,0,VALID,24.2486,VALID,241,VALID,0,
2010-05-12, 03:45:04,VALID,1001.44,VALID,0,VALID,97.0317,VALID,0,VALID,24.2273,VALID,241,VALID,0,
2010-05-12, 03:46:04,VALID,1001.45,VALID,0,VALID,97.0241,VALID,0,VALID,24.2681,VALID,241,VALID,0.303516,